Tracking 29892 objects as of 21-Nov-2024
HD Live streaming from Space Station
objects crossing your sky now

LEMUR 2 TINYKEV

Track LEMUR 2 TINYKEV now!
10-day predictions
LEMUR 2 TINYKEV is classified as:


NORAD ID: 43883
Int'l Code: 2018-111H
Perigee: 393.3 km
Apogee: 411.0 km
Inclination: 97.6 °
Period: 92.5 minutes
Semi major axis: 6773 km
RCS: Unknown
Launch date: December 27, 2018
Source: United States (US)
Launch site: VOSTOCHNY COSMODROME (VOSTO)
Your satellite tracking list
Your tracking list is empty




NASA's NSSDC Master Catalog

Two Line Element Set (TLE):
1 43883U 18111H   24325.16548619  .00218193  00000-0  28906-2 0  9995
2 43883  97.5821 242.9942 0013051 108.3924 251.8751 15.57448341323828
Source of the keplerian elements: AFSPC